sat.trackr.live / text

‹ back to catalog

HULIANWANG DIGUI-66

NORAD 65172 · 2025-174J

PAYLOAD ACTIVE UNKNOWN

§ Identity

Operator
Country
PRC
Launch date
2025-08-13
Launch site
WSC
Launch vehicle
Mass (kg)
RCS (m²)

External: N2YO · Heavens-Above · Gunter

§ Orbital elements

Epoch: 2026-05-25T04:50:03.808608Z

Period
108.73 min
Inclination
86.4911°
Eccentricity
0.0001879
Mean motion
13.24404108 rev/d
Perigee alt
1,166.5 km
Apogee alt
1,169.4 km
Semi-major
7,546.1 km
B*
8.5124e-5
RAAN
259.6810°
Arg perigee
94.3043°
Mean anomaly
265.8306°
Rev number
3,774

§ Raw data

HULIANWANG DIGUI-661 65172U 25174J   26145.20143297  .00000051  00000+0  85124-4 0  99952 65172  86.4911 259.6810 0001879  94.3043 265.8306 13.24404108 37749

JSON: /api/v1/satellites/65172 · /tle

For live sub-satellite position, see the globe view (requires WebGL).

§ Visibility from observer

Set your observer location to see the next 7 days of passes ≥ 10°. The values pass through the URL so the page stays shareable.

No JS? Fill the form by hand. The geolocation button needs JavaScript.